Volver al catálogo

STARLINK-38138

ActivoComunicacionesSSO
NORAD 100384·PAYLOAD·🇺🇸 United States

Lanzado Aug 19, 2026 desde Vandenberg Space Force Base

Loading…

Próximos Pases (próximas 24 horas)

TLE

ActualizadoSource: Space-Track

Época: Sep 14, 2026, 20:22 UTC

1 A0384U 26190P   26257.84871361  .00726617  00000-0  41591-2 0  9994
2 A0384  97.2848 111.8883 0001238 105.7372 254.4031 15.76854466  5459

Sigue STARLINK-38138 en tiempo real con AllMySat

Download on the App Store